Location: Deer Park
(40.7618°N, 73.3293°W)
Time: 00:22:29
(UTC+00:00)

Daily predictions for brighter satellites

Satellite Brightness Start Highest point End
(mag) Time Altitude Azimuth Time Altitude Azimuth Time Altitude Azimuth
MOS 1-B Rocket 4.3 00:22:42 10° NNE 00:29:42 57° E 00:35:41 10° S
Cosmos 1417 Rocket 4.5 00:26:20 10° S 00:32:30 76° E 00:38:40 10° N
IRIS 3.4 00:31:29 10° W 00:33:49 83° S 00:36:19 10° ESE
Cosmos 2082 Rocket 4.3 00:34:08 10° NNE 00:36:25 12° NE 00:38:42 10° ENE
Cosmos 1606 3.5 00:33:08 10° SSW 00:36:50 54° W 00:40:34 10° N
Cosmos 1503 Rocket 3.9 00:32:22 10° SSW 00:37:31 77° ESE 00:42:44 10° NNE
CZ-2C R/B 4.4 00:32:35 10° N 00:37:34 38° WNW 00:42:38 10° SW
Cosmos 1743 Rocket 4.1 00:33:17 10° NNW 00:37:36 63° W 00:41:55 10° S
Helios 1A Rocket 3.4 00:34:17 10° S 00:38:23 65° WSW 00:42:30 10° NNW
CZ-4 R/B 4.2 00:40:10 10° SW 00:42:43 16° W 00:45:15 10° NW
Ariane Rocket 3.3 00:37:52 10° SE 00:42:43 51° ENE 00:47:37 10° N
USA 290 2.1 00:39:58 10° NNW 00:43:12 84° ENE 00:46:24 10° SSE
COSMOS 2406 4.4 00:45:28 10° N 00:50:18 28° NE 00:54:51 11° ESE
Intercosmos 25 Rocket 3.6 00:45:26 10° N 00:50:38 81° W 00:54:08 10° S
DELTA 2 R/B (1) 4.3 00:47:38 10° W 00:52:51 41° SSW 00:57:37 12° SE
Cosmos 1933 3.3 00:49:39 10° S 00:53:41 84° E 00:57:44 10° N
Resurs 1-3 3.8 00:50:24 10° SSE 00:54:41 57° ENE 00:59:00 10° N
Tianhe-1 2.8 00:53:46 10° S 00:55:39 15° SSE 00:56:11 14° SE
Cosmos 1437 3.5 00:54:19 12° SSE 00:56:27 26° E 00:58:54 10° NE
Cosmos 1666 Rocket 3.8 00:53:09 10° N 00:57:25 49° E 01:01:26 11° SSE
Meteor 1-20 Rocket 4.2 00:51:50 10° N 00:57:26 77° E 01:02:54 10° SSE
Cosmos 1844 Rocket 4.4 00:52:36 10° SW 00:57:43 36° WNW 01:02:52 10° N
IRS-1A Rocket 4.4 00:52:38 10° SSE 00:58:23 76° ENE 01:04:17 10° N
Cosmos 2278 Rocket 2.7 00:54:00 10° S 00:59:11 39° ESE 01:04:24 10° NE
Cosmos 1782 3.0 00:55:55 10° S 00:59:46 50° E 01:03:38 10° NNE
SJ 16-02 2.5 00:59:40 12° SSE 01:02:51 24° E 01:06:23 10° NE
Cosmos 1812 3.9 01:02:33 15° SE 01:04:41 24° E 01:07:48 10° NE
Sich 1 3.2 01:01:07 10° N 01:05:29 77° W 01:09:51 10° S
Cosmos 2084 4.3 01:06:10 10° SW 01:10:11 53° NW 01:14:20 10° NNE
Landsat 7 4.5 01:06:59 15° SE 01:10:28 39° ENE 01:14:54 10° N
Intercosmos 24 4.3 01:07:06 10° SSW 01:10:44 57° W 01:14:17 10° N
SJ-6B 3.8 01:07:15 10° S 01:10:59 45° W 01:14:50 10° NNW
Meteor 2-17 Rocket 4.5 01:05:02 10° N 01:11:12 71° E 01:17:18 10° SSE
CZ-4C R/B 3.3 01:05:38 10° NNW 01:12:52 59° NE 01:19:33 17° SE
ATLAS 5 CENTAUR R/B 2.7 01:07:54 10° NW 01:13:43 70° WSW 01:19:48 13° SSE
Cosmos 1151 Rocket 3.0 01:11:31 10° S 01:15:52 79° E 01:20:15 10° N
USA 305 4.2 01:14:35 10° NW 01:18:25 31° NNE 01:21:35 14° E
NOSS 3-3 (A) 4.3 01:14:31 10° SW 01:20:08 65° NW 01:26:34 10° NNE
NOSS 3-3 (C) 4.3 01:14:37 10° SW 01:20:15 66° NW 01:26:41 10° NNE
SPOT 1/Viking Rocket 4.2 01:22:52 20° SE 01:26:01 40° ENE 01:30:51 10° N
ATLAS 2AS CENTAUR R/B 4.2 01:20:35 10° NNW 01:26:39 26° NE 01:32:16 10° E
IGS 5A 3.4 01:27:12 21° SSE 01:29:51 70° ENE 01:34:00 10° N
Cosmos 1709 Rocket 4.0 01:24:53 10° N 01:31:01 87° W 01:36:46 12° S
BREEZE M DEB (TANK) 4.1 01:27:31 10° WNW 01:31:30 23° N 01:33:37 10° NE
Cosmos 1833 Rocket 2.8 01:31:05 10° NNW 01:36:43 62° ENE 01:39:57 25° SE
USA 306 3.8 01:33:58 10° NW 01:38:01 40° NNE 01:40:20 22° E
Cosmos 1500 3.0 01:36:17 10° N 01:40:02 76° E 01:41:40 32° SSE
CZ-2C R/B 3.6 01:36:47 10° NNE 01:41:18 70° ESE 01:44:53 16° S
SPOT 3 Rocket 3.5 01:37:38 20° SSE 01:41:20 89° WSW 01:46:31 10° NNW
SWARM A 4.4 01:39:29 10° N 01:42:45 52° E 01:43:24 43° SE
Cosmos 773 Rocket 4.2 01:38:20 10° NNW 01:43:37 73° WSW 01:47:06 22° S
Cosmos 2228 Rocket 4.0 01:43:57 27° ESE 01:44:37 29° E 01:48:27 10° NNE
Resurs 01 Rocket 1.8 01:41:39 19° S 01:44:44 70° WSW 01:49:11 10° NNW
Akebono 4.0 01:42:54 10° NNW 01:44:48 68° NW 01:44:48 68° NW
Cosmos 1538 Rocket 4.1 01:42:22 10° NNW 01:47:42 64° ENE 01:50:14 30° SE
GPS 2-04 Rocket1 3.2 01:44:43 10° WSW 01:48:36 40° S 01:49:13 37° SSE
Meteor 1-5 Rocket 4.1 01:44:17 10° N 01:49:37 67° E 01:52:15 30° SSE
Spot 2 Rocket 3.8 01:47:58 30° SE 01:50:08 49° ENE 01:55:00 10° N
ERS-1 Rocket 3.9 01:49:56 26° ESE 01:51:40 33° ENE 01:56:09 10° N
CRYOSAT 2 4.4 01:49:10 21° S 01:52:28 83° W 01:57:23 10° N
X-37B 1.8 01:51:25 10° W 01:54:16 30° SSW 01:54:18 30° SSW
deb Kosmos-1763 3.9 01:51:29 10° NNW 01:55:00 66° ENE 01:55:36 53° ESE
Cosmos 1515 Rocket 3.5 01:53:19 20° S 01:56:18 84° W 02:00:42 10° N
Cosmos 2297 4.5 02:00:19 30° ESE 02:00:46 31° ESE 02:05:40 10° NE
Delta 2 Rocket 3.9 01:57:41 10° WSW 02:02:28 44° S 02:03:03 42° SSE
Meteor 1-10 Rocket 4.1 02:00:51 25° S 02:04:12 74° E 02:09:51 10° NNE
Cosmos 1633 Rocket 4.5 02:00:39 10° NNW 02:04:39 35° W 02:07:59 14° SSW
Cosmos 1869 Rocket 4.4 02:00:58 10° NNE 02:04:53 32° ENE 02:05:16 32° E
JB-3 4.2 02:01:24 10° NNE 02:05:14 59° E 02:05:36 56° SE
USA 307 3.2 02:01:27 10° NW 02:05:41 60° NE 02:06:53 42° E
Cosmos 1271 Rocket 2.7 02:11:53 46° SSW 02:13:01 86° W 02:17:03 10° N
Terra 2.4 02:17:08 37° E 02:17:54 39° ENE 02:22:19 10° N
USA 308 2.9 02:15:08 10° NW 02:19:26 76° NE 02:20:06 61° ESE
Cosmos 2082 Rocket 2.2 02:15:53 10° NNW 02:21:31 73° ENE 02:23:13 46° SE
CARTOSAT-1 3.4 02:21:09 60° SSE 02:21:56 88° ENE 02:26:16 10° NNW
H-2A R/B 4.2 02:18:01 10° NNE 02:21:19 37° ENE 02:21:19 37° ENE
ARIANE 5 R/B 2.7 02:31:09 54° SSW 02:31:55 67° WSW 02:36:14 10° NNW
Cosmos 1933 Rocket 4.3 02:29:10 10° NNW 02:33:19 46° W 02:34:30 36° SW
SPOT 5 2.9 02:33:36 56° SSE 02:34:45 84° ENE 02:40:03 10° NNW
COSMOS 2406 4.0 02:29:25 10° NW 02:34:45 44° WSW 02:36:56 30° SSW
Cosmos 1898 Rocket 3.5 02:34:06 57° SSE 02:34:52 64° ESE 02:40:09 10° NNE
Cosmos 1943 Rocket 2.4 02:39:12 47° ESE 02:39:12 47° ESE 02:44:29 10° NE
Cosmos 923 Rocket 3.9 02:35:05 10° NNW 02:40:23 82° ENE 02:41:15 62° SE
Cosmos 990 Rocket 3.9 02:39:27 48° SSW 02:40:59 90° W 02:46:17 10° NNE
SJ 16-02 3.1 02:37:20 10° SW 02:41:15 30° WNW 02:45:11 10° N
DNEPR-1 R/B 4.1 02:41:13 50° S 02:42:35 66° ESE 02:47:45 10° NE
Cosmos 2278 Rocket 4.0 02:38:22 10° WSW 02:43:19 31° WNW 02:48:17 10° N
Cosmos 1666 4.0 02:41:49 10° NNW 02:45:09 31° W 02:45:29 31° WSW
Iridium 4 Rocket 4.4 02:42:49 26° SSW 02:45:53 53° W 02:51:41 10° N
Meteor 2-12 Rocket 4.4 02:43:24 10° N 02:49:27 76° W 02:51:13 48° SSW
Cosmos 2369 Rocket 3.4 02:51:16 27° ENE 02:51:16 27° ENE 02:54:42 10° NE
Cosmos 1733 Rocket 4.2 02:48:31 10° N 02:51:43 32° NE 02:51:43 32° NE
Meteor 1-27 Rocket 4.0 02:52:26 37° SSW 02:54:45 68° W 03:00:40 10° N
USA 305 3.8 02:54:24 10° WNW 02:57:39 41° W 02:57:39 41° W
SL-8 Rocket 4.4 02:53:44 10° N 02:59:48 46° ENE 03:00:36 44° E
CZ-4C R/B 4.0 02:54:32 10° NW 03:01:25 37° WSW 03:04:45 27° SSW
Cosmos 1544 4.2 02:59:35 10° N 03:02:04 42° NNW 03:02:04 42° NNW
Cosmos 2084 Rocket 4.3 03:00:02 10° NNW 03:03:54 43° NE 03:03:54 43° NE
NOSS 3-4 (A) 4.1 02:57:55 10° NW 03:04:59 62° WSW 03:07:09 46° S
NOSS 3-4 (C) 4.1 02:58:01 10° NW 03:05:06 62° WSW 03:07:15 46° S
Cosmos 1340 Rocket 3.4 03:02:13 10° N 03:05:30 56° NNW 03:05:30 56° NNW
Cosmos 1238 Rocket 3.9 03:01:11 10° N 03:06:55 52° ENE 03:06:56 52° ENE
Cosmos 1743 3.7 03:03:45 10° N 03:06:30 44° N 03:06:30 44° N
Meteor 1-19 Rocket 4.4 03:12:03 54° ENE 03:12:03 54° ENE 03:16:53 10° NNE
ATLAS 2AS CENTAUR R/B 2.6 03:11:13 10° NW 03:18:30 83° WSW 03:19:41 64° SSE
Cosmos 2112 Rocket 4.0 03:13:35 10° NNW 03:18:56 72° WSW 03:19:01 71° WSW
Cosmos 1536 4.4 03:21:35 10° NNW 03:24:37 30° WNW 03:24:37 30° WNW
Cosmos 962 Rocket 4.4 03:20:38 10° N 03:26:44 76° W 03:27:28 67° SSW
Cosmos 1959 Rocket 4.5 03:22:45 10° N 03:28:55 62° E 03:29:12 62° E
Meteor 2-4 Rocket 4.3 03:30:52 45° ENE 03:30:52 45° ENE 03:35:35 10° NNE
ERS-1 Rocket 4.4 03:29:55 27° WSW 03:30:27 28° W 03:34:44 10° NW
Cosmos 1937 Rocket 4.0 03:33:12 49° W 03:33:50 52° WNW 03:38:53 10° N
Cosmos 1862 Rocket 4.4 03:35:48 47° N 03:35:48 47° N 03:38:57 10° N
Cosmos 1975 4.4 03:37:39 10° N 03:39:56 32° N 03:39:56 32° N
RESURS DK-1 4.2 03:44:24 10° N 03:47:03 25° NNE 03:47:03 25° NNE
Cosmos 2181 Rocket 4.1 03:53:39 62° WSW 03:54:13 65° W 04:00:19 10° N
Terra 3.7 03:56:01 21° W 03:56:01 21° W 03:59:22 10° NW
Milstar 3 4.3 03:48:42 10° WSW 03:56:12 31° SW 03:56:12 31° SW
Cosmos 1821 Rocket 4.4 03:54:31 10° N 04:00:43 49° ENE 04:00:53 49° E
Cosmos 2366 rocket 3.9 03:54:43 10° N 04:00:54 74° W 04:01:02 74° WSW
Cosmos 2082 Rocket 4.3 04:01:56 10° WNW 04:04:53 15° W 04:05:04 15° W
Cosmos 2298 Rocket 4.5 04:10:57 56° NNE 04:10:57 56° NNE 04:15:08 10° NNE
Cosmos 1607 3.9 04:12:57 77° W 04:13:18 80° WNW 04:19:50 10° NNE
ALOS 2 3.8 04:14:52 39° N 04:14:52 39° N 04:17:44 10° N
Centaur D AC-29 4.3 03:55:08 10° WSW 04:19:09 33° SW 04:19:09 33° SW
Cosmos 1943 Rocket 4.0 04:20:39 19° W 04:23:05 26° NW 04:27:44 10° N
SeaSat 1 4.3 04:19:15 10° NE 04:21:16 20° ENE 04:21:16 20° ENE
ATLAS CENTAUR R/B 3.7 04:30:12 19° NNE 04:30:12 19° NNE 04:31:23 10° NNE
Cosmos 2369 Rocket 3.2 04:33:00 37° WNW 04:33:44 38° WNW 04:39:00 10° N
Cosmos 1656 Rocket 4.1 04:38:22 54° NW 04:38:22 54° NW 04:43:29 10° NNE
Nadezhda 3 Rocket 3.9 04:41:02 78° WNW 04:41:02 78° WNW 04:47:05 10° N
BREEZE-M DEB (TANK) 3.9 04:32:34 10° WNW 04:43:38 76° NNW 04:43:38 76° NNW
Lacrosse 5 3.3 04:48:12 30° ENE 04:48:12 30° ENE 04:50:50 10° NE
Cosmos 1125 Rocket 4.2 04:54:49 50° NW 04:54:49 50° NW 04:59:11 10° N
USA 215 4.2 04:51:52 12° E 04:57:34 45° NNE 05:03:43 10° NW
Cosmos 1605 Rocket 4.3 05:00:27 10° N 05:06:38 56° E 05:06:53 56° E
EO 1 Delta rocket 4.3 05:18:58 70° N 05:18:58 70° N 05:24:19 10° N
Cosmos 2227 Rocket 4.3 05:20:49 10° N 05:25:02 21° NE 05:29:12 10° E
Cosmos 2297 Rocket 3.9 05:23:07 10° N 05:27:55 28° NE 05:30:43 19° E
ISS -0.4 05:30:15 10° NNW 05:31:55 13° N 05:33:36 10° NNE
USA 81 4.3 05:27:09 10° N 05:31:39 65° N 05:31:39 65° N
NOSS 2-1 (C) 4.3 05:31:02 10° NW 05:36:00 82° NW 05:36:00 82° NW
Cosmos 1934 Rocket 4.4 05:36:38 10° NNW 05:41:59 46° WNW 05:41:59 46° WNW
NOSS 2-1 (D) 4.4 05:37:52 10° NW 05:42:38 72° WNW 05:42:38 72° WNW
Cosmos 1656 4.3 05:45:16 44° E 05:45:16 44° E 05:49:57 10° NE
Cosmos 2344 4.5 05:43:38 10° NW 05:53:27 65° WSW 05:58:24 42° S
Cosmos 1707 4.4 05:58:22 31° NNE 05:58:22 31° NNE 06:00:33 10° NNE
Okean 1 Rocket 4.0 05:54:22 10° N 05:57:25 44° N 05:57:25 44° N
SeaSat 1 3.4 05:56:30 10° N 06:01:02 38° NW 06:01:03 38° WNW
COSMOS 2455 3.0 05:57:04 10° NNW 06:03:05 69° ENE 06:04:25 53° ESE
CZ-4 R/B 4.2 06:02:39 10° N 06:06:47 60° NNW 06:06:47 60° NNW
Meteor 2-20 4.4 06:07:18 64° W 06:07:35 65° W 06:13:43 10° N
Cosmos 1727 Rocket 3.9 06:09:20 67° WSW 06:09:48 70° W 06:16:10 10° N
Cosmos 371 Rocket 3.7 06:10:20 58° ENE 06:10:20 58° ENE 06:14:39 10° NNE
Helios 1B rocket 3.7 06:08:20 10° NNE 06:11:27 37° ENE 06:11:27 37° ENE
Cosmos 2219 3.8 06:07:05 10° NNW 06:12:40 53° ENE 06:14:52 34° ESE
SL-16 R/B 2.9 06:15:31 37° SE 06:17:57 60° ENE 06:24:06 10° N
ADEOS II 3.4 06:20:03 10° NE 06:24:41 31° E 06:25:56 28° ESE
Lacrosse 4 Rocket 2.7 06:26:20 34° E 06:26:20 34° E 06:29:55 10° NE
Cosmos 1953 3.3 06:25:15 10° N 06:28:48 44° ENE 06:28:48 44° ENE
Lacrosse 5 3.5 06:27:22 23° WNW 06:29:06 28° NNW 06:33:30 10° NNE
NPP 3.8 06:26:26 10° NNE 06:31:48 65° ESE 06:32:31 58° SE
AQUA 4.3 06:27:21 10° NNE 06:32:00 50° E 06:32:19 49° ESE
CZ-2D R/B 2.0 06:27:11 10° NNE 06:32:36 81° ESE 06:33:07 72° SSE
Cosmos 1455 Rocket 3.2 06:32:22 10° N 06:36:33 68° ENE 06:36:33 68° ENE
Resurs 1-4 Rocket 1.9 06:33:28 10° NNE 06:38:46 87° WNW 06:39:15 74° SSW
USA 215 3.2 06:39:06 51° S 06:40:25 60° SW 06:46:53 10° NW
MOZ.5/SAFIR/RUBIN 5/SL-8 4.4 06:42:26 42° WNW 06:42:26 42° WNW 06:46:00 10° NNW
Cosmos 1725 Rocket 4.2 06:35:57 10° N 06:42:10 65° E 06:44:56 34° SSE
Cosmos 2360 4.4 06:42:06 52° SSE 06:43:10 61° ESE 06:48:50 10° NNE
Cosmos 1697 Rocket 2.6 06:42:23 61° SSE 06:43:14 73° ESE 06:48:50 10° NNE
Meteor 1-29 4.2 06:42:07 10° NNE 06:44:36 38° ENE 06:44:36 38° ENE
Cosmos 407 Rocket 4.5 06:40:19 10° N 06:45:28 46° ENE 06:49:35 15° SE
Cosmos 1459 Rocket 3.9 06:40:15 10° NNW 06:46:27 68° W 06:47:34 56° SW
Meteor 1-16 Rocket 4.3 06:41:35 10° N 06:47:32 79° E 06:49:29 44° SSE
Cosmos 1674 3.2 06:50:39 55° NNW 06:50:39 55° NNW 06:53:44 10° N
Cosmos 1726 4.4 06:47:43 10° NW 06:48:44 16° NW 06:48:44 16° NW
USA 281 3.2 06:49:16 49° SSW 06:50:55 64° WSW 06:57:27 10° NNW
GP-B 4.4 06:47:44 10° NNE 06:51:50 35° E 06:53:21 27° SE
Cosmos 1980 Rocket 2.8 06:54:10 36° SSE 06:55:54 47° ESE 07:01:19 10° NE
Cosmos 2016 Rocket 3.9 06:50:05 10° N 06:56:21 84° W 06:58:27 44° S
Meteor 2-11 Rocket 4.4 06:51:05 10° NNW 06:57:14 72° W 06:58:54 49° SSW
SL-14 R/B 4.0 06:59:18 42° ESE 06:59:45 44° E 07:03:31 10° NNE
Cosmos 2173 Rocket 4.2 06:56:42 10° NNW 07:02:36 49° W 07:03:45 44° WSW
Cosmos 2061 Rocket 3.9 06:59:51 10° N 07:06:12 76° W 07:08:42 39° S
Timation 2 Rocket 3.8 07:00:35 10° NNW 07:06:28 63° WSW 07:08:17 43° S
Cosmos 1626 2.1 07:07:59 76° N 07:07:59 76° N 07:11:26 10° N
Cosmos 1975 Rocket 3.9 07:08:32 35° WNW 07:08:32 35° WNW 07:12:17 10° N
Cosmos 2227 Rocket 2.1 07:03:57 10° NNW 07:09:32 62° WSW 07:10:57 47° SSW
TSX-5 4.1 07:05:59 10° NNW 07:08:44 50° NW 07:08:44 50° NW
ISS -1.2 07:06:56 10° NNW 07:09:41 22° NNE 07:12:25 10° ENE
UNK 4.0 07:11:24 48° W 07:11:24 48° W 07:15:43 10° NNW
Cosmos 1315 Rocket 4.4 07:08:11 10° NNW 07:10:25 24° WNW 07:10:25 24° WNW
Cosmos 2297 Rocket 2.5 07:06:46 10° NW 07:12:08 44° WSW 07:12:27 44° WSW
Cosmos 2285 Rocket 4.2 07:10:17 34° S 07:13:11 67° ESE 07:19:34 10° NNE
Cosmos 304 Rocket 3.9 07:13:22 51° WSW 07:14:05 58° WNW 07:18:50 10° NNE
Cosmos 2056 Rocket 3.5 07:13:38 45° S 07:15:09 74° ESE 07:20:16 10° NNE
DELTA 2 DEB (DPAF) 4.2 07:14:05 36° SSE 07:15:50 76° ENE 07:20:18 10° N
Cosmos 2369 3.6 07:14:44 46° SSW 07:16:33 81° WNW 07:22:19 10° NNE
Cosmos 2278 3.9 07:15:39 35° S 07:17:58 64° ESE 07:23:37 10° NNE
ARGOS Delta rocket 3.9 07:14:16 10° N 07:18:55 64° WNW 07:20:01 49° SW
SL-19 R/B 4.4 07:15:33 10° N 07:20:58 55° WNW 07:22:31 40° WSW
Cosmos 1023 Rocket 4.4 07:16:57 10° NNW 07:22:13 87° ENE 07:25:58 20° SSE
Cosmos 1300 3.4 07:19:23 10° N 07:23:07 50° E 07:24:55 26° SE
Cosmos 2082 3.6 07:19:30 10° NNW 07:25:14 89° SW 07:30:57 10° SSE
Cosmos 1371 Rocket 3.9 07:26:14 43° SW 07:27:58 75° WNW 07:33:11 10° NNE
OAO 2 Rocket 3.9 07:29:24 38° SSW 07:30:12 41° S 07:35:10 10° ESE
SL-16 R/B 4.0 07:26:58 10° SSE 07:31:28 25° ESE 07:36:00 10° NE
Cosmos 1025 Rocket 3.6 07:31:57 37° W 07:32:25 38° WNW 07:36:31 10° N
IRS-1D 3.6 07:33:10 10° N 07:38:30 69° WNW 07:40:55 33° SSW
Cosmos 1140 Rocket 3.4 07:34:46 10° NNW 07:39:57 67° WSW 07:43:34 20° S
Iridium 2 3.7 07:42:04 48° SW 07:42:52 63° W 07:46:40 10° N
IDEFIX/ARIANE 42P 2.6 07:40:22 10° NNE 07:45:40 87° ESE 07:48:54 24° SSW
Helios 1B rocket 4.3 07:44:33 10° NNW 07:47:09 16° WNW 07:47:45 16° WNW
COSMOS 2455 4.3 07:44:26 10° WNW 07:47:29 18° W 07:47:29 18° W
Cosmos 1340 2.5 07:49:44 39° SSW 07:51:02 78° W 07:54:48 10° N
Meteor 1-28 Rocket 3.4 07:53:43 38° SW 07:54:35 47° W 07:58:11 10° NNW
IUS-18 SRM-1 4.4 07:55:12 15° S 07:55:49 15° SSE 07:59:34 10° SE
Cosmos 2219 4.4 07:52:09 10° NW 07:56:23 22° W 07:56:43 22° WSW
Meteor 2-10 Rocket 4.1 07:52:39 10° N 07:58:19 64° ENE 08:03:45 10° SSE
Cosmos 2322 Rocket 3.6 07:53:43 10° SSE 07:58:41 33° ESE 08:03:42 10° NE
SL-16 R/B 3.7 08:00:36 20° WSW 08:01:55 22° W 08:06:35 10° NW
ADEOS II 3.0 07:59:41 10° N 08:04:19 33° WNW 08:06:52 21° WSW
NOSS 3-2 (A) 4.0 08:00:10 15° S 08:04:26 46° ESE 08:10:16 10° NE
Lacrosse 4 Rocket 3.0 08:02:37 18° W 08:04:36 25° NW 08:08:16 10° N
Cosmos 2263 Rocket 2.6 07:59:09 10° NNW 08:04:47 65° ENE 08:10:24 10° SSE
Cosmos 1953 4.5 08:03:24 10° WNW 08:04:27 12° WNW 08:04:27 12° WNW
Cosmos 1190 Rocket 4.3 08:00:09 10° NNW 08:05:08 46° WSW 08:09:34 13° S
Meteor 1-24 Rocket 3.7 08:01:33 21° SSW 08:05:16 67° W 08:10:40 10° N
ARIANE 5 R/B 2.6 08:00:14 10° NNE 08:05:23 79° ESE 08:09:44 14° S
IRS-P3 4.1 08:00:09 10° NNE 08:05:31 82° WNW 08:09:39 17° SSW
Cosmos 1420 Rocket 4.2 08:07:40 23° SW 08:10:47 55° WNW 08:15:54 10° N
Cosmos 1726 Rocket 4.1 08:06:52 10° N 08:11:13 61° E 08:15:34 10° SSE
Cosmos 1606 Rocket 3.7 08:06:53 10° N 08:11:18 80° E 08:15:43 10° S
CZ-2D R/B 4.1 08:09:10 10° NNW 08:11:54 14° WNW 08:14:26 10° W
Cosmos 2228 2.9 08:09:02 10° N 08:13:19 80° W 08:17:37 10° S
Lacrosse 5 4.5 08:11:15 10° NW 08:13:38 13° N 08:16:03 10° NNE
CZ-4B R/B 3.5 08:11:02 10° N 08:16:04 78° WNW 08:20:30 14° SSW
Resurs 1-4 Rocket 4.2 08:15:57 10° NW 08:17:46 12° WNW 08:19:33 10° WNW
USA 238 DEB 4.4 08:12:05 10° S 08:18:15 48° ESE 08:24:42 10° NE
USA 238 4.4 08:12:12 10° S 08:18:22 47° ESE 08:24:48 10° NE
ADEOS Rocket 3.9 08:12:29 10° SSW 08:19:28 45° W 08:26:52 10° NNW
Cosmos 2360 Rocket 4.0 08:16:43 10° SSE 08:21:28 29° ESE 08:26:14 10° NE
Cosmos 1513 Rocket 4.4 08:18:26 10° N 08:24:37 79° W 08:30:42 10° S
Meteor 2-5 Rocket 4.5 08:21:35 18° SW 08:25:15 36° WNW 08:30:25 10° N
Cosmos 1697 Rocket 4.5 08:24:06 10° W 08:27:48 18° NW 08:31:35 10° N
Cosmos 676 Rocket 4.3 08:23:59 10° NNW 08:29:01 48° WSW 08:34:05 10° S
Cosmos 1464 Rocket 3.9 08:23:53 10° N 08:30:03 78° W 08:36:16 10° S
Atlas Centaur 2 3.8 08:28:29 13° SW 08:33:29 26° SSE 08:38:36 10° ESE
Cosmos 405 3.8 08:32:16 10° NNW 08:35:23 30° W 08:38:01 13° SSW
Cosmos 292 Rocket 4.1 08:32:03 15° SW 08:36:00 53° WNW 08:40:48 10° N
Aureole 2 Rocket 2.5 08:35:33 10° NW 08:38:00 32° WSW 08:40:27 10° S
Cosmos 1980 Rocket 3.5 08:35:56 12° WSW 08:40:07 26° NW 08:44:50 10° N
CENTAUR R/B 2.9 08:34:45 10° SSW 08:40:17 59° ESE 08:46:53 10° NE
Cosmos 2034 Rocket 4.1 08:33:55 10° N 08:40:18 89° E 08:46:35 10° S
Cosmos 2227 4.2 08:40:33 10° NNW 08:46:10 66° WSW 08:51:43 10° S
ISS -3.8 08:43:23 10° WNW 08:46:45 67° SW 08:50:06 10° SE
PAYLOAD A 3.8 08:45:00 10° NNE 08:49:44 82° WNW 08:54:24 10° SSW
Cosmos 1331 Rocket 4.1 08:48:48 10° SSW 08:53:56 83° ESE 08:59:09 10° NNE
Cosmos 1452 Rocket 4.1 08:49:51 10° SW 08:54:51 43° WNW 08:59:53 10° N
Aureole 1 Rocket 2.9 08:52:32 10° NNW 08:56:01 79° ENE 09:00:26 10° SSE
CZ-2D R/B 4.2 08:52:52 10° N 08:56:59 39° WNW 09:01:07 10° SW
Cosmos 1184 Rocket 3.7 08:56:12 10° S 08:59:17 49° E 09:02:24 10° NNE
FENGYUN 3A 3.9 08:57:43 10° NNE 09:03:07 76° ESE 09:08:30 10° S
Spot 4 Rocket 4.4 09:01:15 10° N 09:06:10 46° WNW 09:11:03 10° SW
CZ-2C R/B 2.6 09:01:10 10° N 09:06:15 63° WNW 09:11:22 10° SSW
ASTEX 1 4.3 09:02:40 10° SSE 09:07:32 56° E 09:12:24 10° N
Cosmos 1346 Rocket 3.8 09:04:53 10° SW 09:08:20 29° WNW 09:11:47 10° NNW
Cosmos 389 Rocket 2.7 09:05:49 10° NNW 09:09:10 45° W 09:12:28 10° S
PSLV R/B 3.6 09:05:01 10° NNE 09:09:13 87° ESE 09:13:26 10° SSW
ALOS 2.4 09:07:02 10° NNE 09:11:44 86° ESE 09:16:23 10° SSW
